www.pogodaiklimat.ru

Погода и климат >> Архив погоды >> Россия >> Сахалинская область >> Остров Монерон


ПОГОДА на Острове Монерон

  • Прогноз погоды на Острове Монерон
  • Монитор погоды на Острове Монерон

АРХИВ ПОГОДЫ на Острове Монерон

Время (UTC), дата Ветер
(напр.,м/с)
 
Видим.   Явления Облачность Т
(С)
Тd
(С)
f
(%)
Тe
(С)
Тes
(С)
Комфортность P
(гПа)
Po
(гПа)
Тmin
(С)
Tmax
(С)
R
(мм)
R24
(мм)
S
(см)
09 19.03 СВ 14-18
{20}
20 км 3/0
[Ci fib]
-3.2 -7.3 73 -13 -13 1015.2 1001.3 +4.7
12 19.03 С 5-8
{18}
20 км 10/0
[Ac trans Cs]
-2.0 -7.7 65 -8 -8 1017.8 1004.0
15 19.03 СВ 3-4
{8}
20 км ясно -1.7 -7.6 64 -6 -6 1017.8 1004.0
18 19.03 ЮВ 4-9
{10}
20 км 10/0
[Ci fib]
-2.6 -8.1 66 -8 -8 1017.9 1004.0
21 19.03 ЮВ 18-22
{22}
20 км 10/10 600 м
[Sc]
-2.2 -4.1 87 -13 -13 1010.5 996.8 -3.2 10
00 20.03 Ю 13-16
{22}
500 м слаб. морось {туман} туман ?/? +0.5 -0.2 95 -9 -9 1008.3 994.7
03 20.03 ЮЗ 9-14
{18}
1000 м дымка {туман} 10/10 300 м
[St]
+0.7 +0.1 96 -7 -7 1006.6 993.1
06 20.03 СЗ 8-13
{15}
20 км в посл. час ливневой снег {морось} 10/10 600 м
[Cb cap]
-0.3 -2.8 83 -8 -8 1008.3 994.7
09 20.03 С 10-12
{16}
20 км 8// 600 м
[Sc]
-1.9 -5.1 79 -11 -11 1012.5 998.7 +2.1 0.0
12 20.03 С 8-12
{17}
20 км 9/9 600 м
[Sc]
-2.3 -4.6 84 -10 -10 1016.5 1002.7
15 20.03 В 6-8
{13}
20 км 9/9 600 м
[Cb cap]
-3.9 -6.2 84 -11 -11 1017.1 1003.2
18 20.03 В 6-10
{10}
20 км 10/10 600 м
[Sc]
-4.8 -6.9 85 -13 -13 1018.0 1004.0
21 20.03 В 8-13
{14}
2000 м слаб. ливневой снег 10/10 300 м
[Cb cap]
-6.8 -8.0 91 -16 -16 1016.0 1002.0 -6.9 0.5 6
00 21.03 В 9-14
{16}
2000 м слаб. ливневой снег 10/10 300 м
[Cb cap]
-6.8 -7.9 92 -17 -17 1015.4 1001.3 -7.1
03 21.03 В 10-15
{17}
2000 м слаб. ливневой снег 10/10 300 м
[Cb cap]
-6.6 -7.7 92 -17 -17 1011.4 997.5
06 21.03 В 11-15
{17}
2000 м слаб. ливневой снег 10/10 300 м
[Cb cap]
-6.6 -7.5 93 -17 -17 1008.7 994.7
09 21.03 В 13-16
{17}
4000 м слаб. ливневой снег {метель} 10/10 300 м
[Cb cap]
-6.4 -7.5 92 -18 -18 1005.9 992.0 -6.3 7
12 21.03 В 13-17
{19}
2000 м слаб. ливневой снег {метель} 10/10 300 м
[Cb cap]
-6.2 -7.3 92 -17 -17 1003.2 989.3
15 21.03 СВ 13-17
{19}
1000 м ливневой снег {метель} 10/10 300 м
[Cb cap]
-6.4 -7.5 92 -18 -18 998.5 984.7
18 21.03 СВ 16-20
{20}
1000 м ливневой снег {метель} 10/10 300 м
[Cb cap]
-6.3 -7.2 93 -18 -18 997.8 984.0
21 21.03 СВ 15-19
{22}
1000 м ливневой снег {метель} 10/10 300 м
[Cb cap]
-6.2 -7.2 93 -18 -18 998.7 985.0 -6.8 12 10
00 22.03 СВ 12-18
{20}
1000 м ливневой снег {метель} 10/10 300 м
[Cb cap]
-6.6 -7.7 92 -17 -17 1001.9 988.0
03 22.03 СВ 11-15
{18}
1000 м ливневой снег {метель} 10/10 300 м
[Cb cap]
-6.8 -8.2 90 -17 -17 1004.6 990.7
06 22.03 С 9-15
{17}
2000 м слаб. ливневой снег {метель} 10/10 300 м
[Cb cap]
-6.7 -8.1 90 -16 -16 1005.9 992.0
09 22.03 С 10-17
{17}
2000 м слаб. ливневой снег {метель} 10/10 300 м
[Cb cap]
-6.4 -7.5 92 -16 -16 1008.6 994.7 -6.1 6
12 22.03 С 8-12
{17}
4000 м слаб. ливневой снег {метель} 9/9 300 м
[Cb cap]
-6.9 -8.8 86 -16 -16 1010.0 996.0
15 22.03 С 10-17
{18}
10 км слаб. ливневой снег {метель} 9/9 300 м
[Cb cap]
-6.9 -8.8 86 -17 -17 1011.3 997.3
18 22.03 С 9-14
{18}
10 км слаб. ливневой снег {метель} 9/9 300 м
[Cb cap]
-6.8 -9.3 82 -16 -16 1011.3 997.3
21 22.03 С 7-14
{16}
10 км слаб. ливневой снег 9/9 300 м
[Cb cap]
-6.6 -11.6 68 -15 -15 1009.5 995.5 -7.3 1 7
00 23.03 С 7-11
{14}
50 км {ливн. осадки} 6/6 600 м
[Cu Sc]
-5.3 -12.3 58 -13 -12 1009.9 996.0
03 23.03 С 4-8
{13}
50 км 5/5 600 м
[Sc]
-4.2 -13.3 49 -10 -6 1009.0 995.2
06 23.03 СЗ 3-6
{9}
50 км 3/3 1000 м
[Cu hum]
-4.6 -13.4 50 -9 -6 1008.6 994.7
09 23.03 З 3-4
{6}
20 км 5/1 1000 м
[Cu hum Ci fib]
-5.6 -13.0 56 -11 -11 1008.6 994.7 -3.6 0.0
12 23.03 З 1-2
{5}
20 км 10/0
[Ac trans Cs]
-4.5 -11.1 60 -6 -6 1008.6 994.7
15 23.03 С 3-8
{9}
10 км слаб. ливневой снег 8/8 300 м
[Cb cap]
-4.9 -6.7 87 -10 -10 1006.3 992.5
18 23.03 В 3-5
{11}
20 км {ливн. осадки} 6/3 600 м
[Sc Ci fib]
-4.8 -6.9 85 -10 -10 1007.1 993.3
21 23.03 штиль 0
{5}
20 км 6/6 600 м
[Cb cap]
-5.4 -8.8 77 -6 -6 1005.3 991.5 -5.9 2 8
00 24.03 ЮВ 1-3
{6}
20 км {ливн. осадки} 8/8 600 м
[Sc]
-2.6 -6.1 77 -5 -2 1007.0 993.3
03 24.03 С 5-9
{9}
20 км {ливн. осадки} 6/6 600 м
[Cb cap]
-2.1 -7.1 69 -8 -6 1005.8 992.2
06 24.03 З 2-5
{9}
10 км слаб. ливневой снег 8/8 300 м
[Cb cap]
-4.1 -9.9 64 -8 -7 1006.3 992.6
09 24.03 З 3-7
{9}
20 км {ливн. осадки} 3/3 600 м
[Sc]
-4.3 -14.5 45 -9 -9 1007.6 993.8 -1.4 0.2
12 24.03 ЮЗ 7-11
{13}
20 км {ливн. осадки} 3/3 600 м
[Sc]
-3.0 -10.1 58 -10 -10 1009.0 995.3
15 24.03 ЮЗ 6-8
{12}
20 км 1/1 600 м
[Sc]
-1.6 -7.5 64 -8 -8 1007.9 994.2
18 24.03 З 3-5
{10}
20 км 3/3 600 м
[Sc]
-0.6 -5.7 68 -5 -5 1006.4 992.8
21 24.03 СЗ 3-4
{5}
20 км 1/0
[Ac lent]
-1.9 -10.6 51 -6 -6 1006.2 992.5 -4.4 4
00 25.03 СВ 2-4
{4}
20 км 1/0
[Ac lent]
+1.5 -9.0 46 -1 +6 1006.6 993.1
03 25.03 СВ 3-4
{5}
20 км ясно +1.2 -8.0 50 -3 +7 1006.5 993.0
06 25.03 СВ 3 50 км 5 баллов +0.5 -5.7 63 -4 -2 1006.9 993.3
09 25.03 С 4-4
{5}
20 км 3/0
[Ci fib]
-1.0 -8.2 58 -6 -6 1008.4 994.7 +2.1
12 25.03 С 4-5
{6}
20 км ясно -1.2 -8.6 57 -6 -6 1009.7 996.0
15 25.03 С 3-3
{5}
20 км ясно -1.9 -6.8 69 -7 -7 1013.8 1000.0
18 25.03 С 2-3
{3}
20 км ясно -1.9 -5.9 74 -6 -6 1008.4 994.7
21 25.03 ЮВ 8-9
{9}
20 км 10/10 300 м
[St]
-0.0 -1.3 91 -8 -8 1005.4 991.9 -2.1 2
00 26.03 ЮВ 12 200 м туман н/о -0.2 -0.8 96 -9 1002.8 989.3
03 26.03 ЮВ 17-20
{21}
500 м ливневой снег {туман} 10/10 300 м
[Cb cap]
-0.4 -0.8 97 -11 -11 997.3 983.9

 

Местоположение метеостанции Остров Монерон (Сахалинская область, Россия): широта 46.25 долгота 141.20 высота над уровнем моря 109 м.

В архиве по умолчанию представлена погода на Острове Монерон за последнюю неделю. Архивные данные за месяц целиком и за предыдущие месяцы, начиная с января 2011 года, Вы можете получить, выбрав интересующий диапазон дат из раскрывающегося списка и нажав кнопку "Ввод!".


*Определитесь, кто Вы:
робот инопланетянин человек

Внимание! Время в таблицах - всемирное. Для получения местного времени необходимо прибавить поправку, которая равна 11 ч.

Смотрите также архив погоды в соседних городах и на ближайших метеорологических станциях:

Погода в Невельске (Сахалинская область, Россия) (66 км)
Погода на Мысе Крильон (Сахалинская область, Россия) (73 км)
Погода в Вакканае (Япония) (100 км)
Погода в Холмске (Сахалинская область, Россия) (108 км)
Погода в Огоньках (Сахалинская область, Россия) (109 км)
Погода в Корсакове (Сахалинская область, Россия) (123 км)
Погода в Южно-Сахалинске (Сахалинская область, Россия) (139 км)
Погода в Новиково (Сахалинская область, Россия) (162 км)
Погода в Долинске (Сахалинская область, Россия) (171 км)
Погода в Мальково (Сахалинская область, Россия) (171 км)

Пояснения к столбцам:

Ветер - указаны скорость ветра в м/с - средняя за 10 мин, порывы в срок и между сроками (в фигурных скобках) и направление, откуда дует ветер: С - северный, СВ - северо-восточный, В - восточный, ЮВ - юго-восточный, Ю - южный, ЮЗ - юго-западный, З - западный, СЗ - северо-западный.
Видимость - горизонтальная дальность видимости в метрах или километрах. При видимости от 1 до 10 км при отсутствии осадков обычно наблюдается дымка, при ухудшении видимости до 1 км и менее - туман. В сухую погоду видимость может ухудшаться дымом, пылью или мглою.
Явления - указаны атмосферные явления, наблюдавшиеся в срок или в последний час перед сроком; фигурными скобками обозначены явления, наблюдавшиеся между сроками (за 1-3 часа до срока); квадратными скобками обозначены град или гололедные отложения с указанием их диаметра в мм.
Облачность - указаны через наклонную черту общая и нижняя облачность в баллах и высота нижней границы облаков в метрах; квадратными скобками обозначены формы облаков: Ci - перистые, Cs - перисто-слоистые, Cc - перисто-кучевые, Ac - высококучевые, As - высокослоистые, Sc - слоисто-кучевые, Ns - слоисто-дождевые, Cu - кучевые, Cb - кучево-дождевые. Подробнее классификацию облаков см. в Атласе облаков (PDF).
T - Температура воздуха - температура, измеренная на высоте 2 м над землей.
Td - Температура точки росы - температура, при понижении до которой содержащийся в воздухе водяной пар достигнет насыщения.
f - Относительная влажность воздуха - влажноcть воздуха, измеренная на высоте 2 м над землей.
Te - Эффективная температура - температура, которую ощущает одетый по сезону человек в тени. Характеристика душности погоды. При расчете учитывается влияние влажности воздуха и скорости ветра на теплоощущения человека.
Tes - Эффективная температура на солнце - температура, которую ощущает человек, с поправкой на солнечный нагрев. Характеристика знойности погоды. Зависит от высоты солнца над горизонтом, облачности и скорости ветра. Ночью, в пасмурную погоду, а также при ветре 12 м/с и более поправка равна нулю.
P - Атмосферное давление - приведенное к уровню моря атмосферное давление.
Po - Атмосферное давление - измеренное на уровне метеостанции атмосферное давление.
Tmin - Минимальная температура - минимум температуры воздуха на высоте 2 м над землей.
Tmax - Максимальная температура - максимум температуры воздуха на высоте 2 м над землей.
R - Количество осадков - Количество выпавших осадков за период времени, мм. При наведении курсора мыши на число - период времени, за который выпало указанное количество осадков.
R24 - Количество осадков - Количество выпавших осадков за 24 часа, мм.
S - Снежный покров - Высота снежного покрова, см. При наведении курсора мыши на число - состояние снежного покрова и степень покрытия местности в баллах.